Flag for Bulgaria Weather past 2 weeks in Plovdiv, Bulgaria

59 °F

Low clouds.

Feels Like: 60 °F
Forecast: 54 / 70 °F
Wind: 3 mph from East

Location: Plovdiv Airport

Current Time: Oct 10, 2015 at 2:35:03 PM

Latest Report: Oct 10, 2015 at 2:00 PM

Visibility: N/A

Pressure: 30.09 "Hg

Humidity: 88%

Dew point: 55 °F

Location of PlovdivLocation

Historic Weather in Plovdiv — Graph


Plovdiv temperature yesterday

Maximum temperature yesterday: 61 °F (at 3:30 PM)
Minimum temperature yesterday: 52 °F (at 1:30 AM)
Average temperature yesterday: 55 °F

Past Weeks' High & Low Weather Summary

High81 °F (Sep 25, 3:30 PM)100% (Sep 26, 6:00 AM)30.39 "Hg (Sep 26, 6:00 AM)
Low46 °F (Oct 3, 5:00 AM)44% (Oct 6, 4:30 PM)29.80 "Hg (Oct 6, 4:00 PM)
Average61 °F80%30.10 "Hg
* Reported Sep 25 1:00 PM — Oct 10 1:30 PM, Plovdiv, Weather by CustomWeather, © 2015

Note: Actual official high and low records may vary slightly from our data, if they occured in-between our weather recording intervals... More about our weather records


Plovdiv weather history for previous 24 hours

Time TempWeatherWind HumidityBarometerVisibility
1:30 PM
Sat, Oct 10
59 °FMostly cloudy.7 mph88%30.09 "HgN/A
1:00 PM57 °FMore clouds than sun.7 mph94%30.09 "HgN/A
12:30 PM57 °FLow clouds.6 mph94%30.12 "HgN/A
12:00 PM57 °FMostly cloudy.6 mph94%30.12 "HgN/A
11:30 AM57 °FLight rain. Mostly cloudy.6 mph94%30.12 "Hg6 mi
11:00 AM57 °FLight rain. Low clouds.7 mph94%30.12 "HgN/A
10:30 AM57 °FMostly cloudy.6 mph94%30.12 "HgN/A
10:00 AM57 °FMostly cloudy.8 mph94%30.12 "HgN/A
9:30 AM55 °FLow clouds.7 mph100%30.12 "Hg4 mi
9:00 AM54 °FFog.6 mph100%30.12 "Hg2 mi
8:30 AM54 °FCool.5 mph100%30.12 "Hg1 mi
8:00 AM54 °FCool.2 mph100%30.12 "Hg0 mi
7:30 AM54 °FFog.5 mph100%30.12 "Hg1 mi
7:00 AM54 °FFog.6 mph100%30.12 "Hg4 mi
6:30 AM54 °FFog.6 mph100%30.12 "Hg2 mi
6:00 AM54 °FFog.5 mph100%30.12 "Hg4 mi
5:30 AM54 °FFog.1 mph100%30.12 "Hg4 mi
5:00 AM54 °FFog.3 mph100%30.12 "Hg4 mi
4:30 AM54 °FFog.5 mph100%30.12 "Hg4 mi
4:00 AM54 °FFog.5 mph100%30.12 "Hg4 mi
3:30 AM54 °FMostly cloudy.5 mph100%30.12 "Hg5 mi
3:00 AM55 °FMostly cloudy.5 mph94%30.15 "Hg6 mi
2:30 AM55 °FOvercast.5 mph94%30.15 "Hg6 mi
2:00 AM54 °FPassing clouds.3 mph100%30.15 "Hg6 mi
1:30 AM54 °FPartly cloudy.5 mph100%30.15 "Hg4 mi
1:00 AM54 °FPartly cloudy.3 mph100%30.15 "Hg5 mi
12:00 AM55 °FOvercast.7 mph100%30.15 "HgN/A
11:30 PM
Fri, Oct 9
55 °FOvercast.5 mph100%30.15 "HgN/A
11:00 PM57 °FMostly cloudy.5 mph94%30.12 "Hg6 mi
10:30 PM57 °FPassing clouds.3 mph94%30.12 "Hg6 mi
10:00 PM57 °FOvercast.3 mph94%30.12 "HgN/A
9:30 PM57 °FOvercast.3 mph94%30.12 "HgN/A
9:00 PM57 °FOvercast.5 mph88%30.12 "HgN/A
8:30 PM57 °FOvercast.5 mph88%30.12 "HgN/A
8:00 PM57 °FFog.3 mph88%30.12 "HgN/A
7:30 PM59 °FOvercast.5 mph82%30.09 "HgN/A
7:00 PM59 °FMore clouds than sun.5 mph82%30.09 "HgN/A
6:30 PM59 °FPartly sunny.3 mph77%30.09 "HgN/A
5:30 PM59 °FMore clouds than sun.5 mph77%30.09 "HgN/A
5:00 PM59 °FPartly sunny.6 mph77%30.09 "HgN/A
4:30 PM61 °FBroken clouds.7 mph77%30.09 "HgN/A
4:00 PM61 °FScattered clouds.5 mph72%30.09 "HgN/A
3:30 PM61 °FBroken clouds.3 mph68%30.09 "HgN/A
3:00 PM59 °FPartly sunny.6 mph77%30.09 "HgN/A
2:30 PM59 °FCloudy.3 mph77%30.09 "HgN/A
2:00 PM57 °FMostly cloudy.3 mph77%30.09 "HgN/A
Weather by CustomWeather, © 2015

See weather overviewHow to use our weather pages